#timestamp,LO_Frequency,Hit,StdDev 
1610730015.1,286047002.4,N
1610730035.9,286046999.7,N
1610730055.7,286047000.3,N
1610730075.5,286046998.1,N
1610730095.4,286046998.1,N
1610730115.2,286046999.0,N
1610730135.0,286046999.6,N
1610730135.9,286046999.6,N
1610730155.8,286046999.6,N
1610730175.6,286046999.4,N
1610730195.5,286046998.2,N
1610730215.3,286047001.2,N
1610730235.1,286046998.7,N
1610730255.9,286047000.0,N
1610730275.7,286047000.0,N
1610730295.6,286047000.4,N
1610730315.4,286046999.8,N
1610730335.2,286047000.6,N
1610730355.1,286047001.2,N
1610730356.0,286047001.2,N
1610730375.8,286046996.5,N
1610730395.6,286046999.3,N
1610730415.5,286046998.5,N
1610730435.3,286046997.1,N
1610730455.2,286046998.7,N
1610730475.9,286047000.5,N
1610730495.7,286046998.5,N
1610730515.6,286047000.9,N
1610730535.4,286047000.4,N
1610730555.2,286046999.7,N
1610730575.1,286046999.7,N
1610730595.8,286047002.7,N
1610730615.7,286047000.2,N
1610730635.5,286047002.6,N
1610730655.4,286047000.4,N
1610730675.2,286047000.6,N
1610730695.0,286047000.6,N
1610730695.9,286047000.6,N
1610730715.8,286047000.1,N
1610730735.6,286047000.5,N
1610730755.4,286047003.2,N
1610730775.3,286047004.0,N
1610730795.1,286047001.3,N
1610730815.9,286047001.8,N
1610730835.7,286047001.5,N
1610730855.5,286047004.2,N
1610730875.4,286047001.8,N
1610730895.2,286047005.2,N
1610730915.0,286047011.9,Y
1610730916.0,286047003.8,P
1610730935.8,286047002.0,N
1610730955.6,286047001.6,N
1610730975.5,286047003.5,Y
1610730995.3,286047002.5,P
1610731015.1,286047000.3,N
1610731035.9,286047002.7,N
1610731055.7,286046998.4,N
1610731075.6,286046999.2,N
1610731095.4,286047000.5,N
1610731115.2,286047000.9,N
1610731135.1,286046999.6,N
1610731136.0,286046999.6,N
1610731155.8,286046999.6,N
1610731175.6,286046997.3,N
1610731195.5,286046997.8,N
1610731215.3,286046998.8,N
1610731235.1,286046999.3,N
1610731255.9,286046999.0,N
1610731275.7,286046998.2,N
1610731295.6,286046998.8,N
1610731315.4,286046996.6,N
1610731335.2,286046997.0,N
1610731355.1,286046996.5,N
1610731356.0,286046996.5,N
1610731375.8,286046999.1,N
1610731395.7,286046999.6,N
1610731415.5,286046997.8,N
1610731435.3,286046995.0,N
1610731455.2,286046996.7,N
1610731475.9,286046996.9,N
1610731495.7,286046997.1,N
1610731515.6,286046996.7,N
1610731535.4,286046996.9,N
1610731555.3,286046997.2,N
1610731575.1,286046996.8,N
1610731576.0,286046996.8,N
1610731595.8,286046999.1,N
1610731615.7,286046999.1,N
1610731635.5,286046999.0,N
1610731655.3,286046996.6,N
1610731675.2,286046999.6,N
1610731695.0,286046997.5,N
1610731695.9,286046997.5,N
1610731715.8,286046997.3,N
1610731735.6,286046999.5,N
1610731755.4,286046999.1,N
1610731775.3,286046997.2,N
1610731795.1,286046995.0,Y
1610731815.8,286046998.3,P
1610731835.7,286046998.5,P
1610731855.5,286047000.8,N
1610731875.4,286047001.2,N
1610731895.2,286047000.8,N
1610731915.0,286047000.7,N
1610731915.9,286047000.7,N
1610731935.8,286047000.9,N
1610731955.6,286046999.0,N
1610731975.4,286047001.2,N
1610731995.3,286046999.2,N
1610732015.1,286046999.5,N
1610732035.9,286046995.0,Y
1610732055.7,286046997.7,P
1610732075.5,286046999.5,N
1610732095.4,286046999.0,N
1610732115.2,286046997.4,Y
1610732135.1,286046998.9,P
1610732136.0,286046998.9,P
1610732155.8,286046998.4,P
1610732175.6,286046998.9,Y
1610732195.5,286046998.8,P
1610732215.3,286046998.6,P
1610732235.2,286046999.2,P
1610732255.9,286046998.8,Y
1610732275.7,286047000.3,P
1610732295.6,286047000.7,N
1610732315.4,286047002.2,N
1610732335.2,286047002.4,N
1610732355.1,286047000.5,N
1610732356.0,286047000.5,N
1610732375.8,286047000.3,N
1610732395.7,286047000.5,N
1610732415.5,286047001.0,N
1610732435.3,286047000.5,N
1610732455.2,286047000.1,N
1610732475.9,286047001.0,N
1610732495.7,286047000.2,N
1610732515.6,286047001.1,N
1610732535.4,286047000.9,N
1610732555.3,286046998.8,N
1610732575.1,286046998.5,N
1610732576.0,286046998.5,N
1610732595.8,286046996.9,N
1610732615.7,286046997.0,N
1610732635.5,286047001.2,N
1610732655.3,286047002.7,N
1610732675.2,286047001.6,N
1610732695.0,286047000.6,N
1610732695.9,286047000.6,N
1610732715.8,286046999.9,N
1610732735.6,286047000.9,N
1610732755.4,286047000.5,N
1610732775.3,286046998.1,N
1610732795.1,286046999.0,N
1610732815.8,286046997.4,N
1610732835.7,286046998.6,N
1610732855.5,286046999.0,N
1610732875.3,286046998.4,N
1610732895.2,286046994.9,Y
1610732915.0,286046998.0,P
1610732915.9,286046998.0,N
1610732935.8,286046997.8,N
1610732955.6,286046997.9,N
1610732975.4,286046996.7,Y
1610732995.3,286046999.2,P
1610733015.1,286046998.9,N
1610733035.9,286046999.1,N
1610733055.7,286047001.1,Y
1610733075.5,286047000.2,P
1610733095.4,286047001.8,N
1610733115.2,286047003.8,P
1610733135.0,286047003.6,N
1610733135.9,286047003.6,N
1610733155.8,286047001.8,N
1610733175.6,286047001.3,N
1610733195.5,286047001.3,N
1610733215.3,286047002.1,N
1610733235.1,286047001.5,N
1610733255.9,286047002.2,N
1610733275.7,286047000.4,N
1610733295.6,286047000.3,N
1610733315.4,286046998.8,N
1610733335.2,286046998.9,N
1610733355.1,286047001.1,N
1610733356.0,286047001.1,N
1610733375.8,286047000.1,N
1610733395.7,286046999.8,N
1610733415.5,286047000.0,N
1610733435.3,286047002.7,N
1610733455.2,286047000.2,N
1610733475.0,286046999.7,N
1610733475.9,286046999.7,N
1610733495.8,286047000.1,N
1610733515.6,286047001.3,N
1610733535.4,286047000.4,N
1610733555.3,286047000.9,N
1610733575.1,286047001.0,N
1610733595.8,286047000.0,N
